Regional Weather Roundup
Issued by NWS New Orleans/Baton Rouge, LA

Home | Current Version | Previous Version | Text Only | Print | Product List | Glossary Off
Versions: 1 2 3 4 5 6 7 8 9 10 11 12 13 14 15 16 17 18 19 20 21 22 23 24 25 26 27 28 29 30 31 32 33 34 35 36 37 38 39 40 41 42 43 44 45 46 47 48 49 50

656
ASUS44 KLIX 240105
RWRLIX
NEW ORLEANS REGIONAL WEATHER ROUNDUP
NATIONAL WEATHER SERVICE NEW ORLEANS LA
700 PM CST SUN NOV 23 2014

NOTE: "FAIR" INDICATES FEW OR NO CLOUDS BELOW 12,000 FEET WITH NO
      SIGNIFICANT WEATHER AND/OR OBSTRUCTIONS TO VISIBILITY.
      SKY/WX - SKY CONDITION AND SIGNIFICANT WEATHER.
      TMP - AIR TEMPERATURE.     DP    - DEWPOINT TEMPERATURE.
      RH  - RELATIVE HUMIDITY.   PRES  - PRESSURE.
      HI  - HEAT INDEX.          WCI   - WIND CHILL INDEX.

*  THESE STATIONS ARE NOT NWS OR FAA STATIONS AND ARE NOT UNDER
   NWS QUALITY CONTROL.

LAZ038-040-048-061>063-065>067-069-240200-
SOUTHEAST LOUISIANA

CITY           SKY/WX    TMP DP  RH WIND       PRES   REMARKS
N.O. AUDUBON     N/A     67  64  90 MISG        N/A
N.O. INTL ARPT PTCLDY    67  62  84 S9        29.68S
N.O. LAKEFRONT PTCLDY    68  63  84 S12       29.69S
N.O. DOWNTOWN*   N/A     70  61  73 S8        29.69S
SLIDELL        CLEAR     65  60  84 S7        29.67S
BATON ROUGE    MOCLDY    70  64  81 SW18G26   29.65R
BOOTHVILLE     CLEAR     66  66 100 S10       29.73R
BELLE CHASSE   MOCLDY    67  63  87 S8        29.69S
BOGALUSA*        N/A     66  58  76 S6        29.67R
NEW ROADS*       N/A     66  62  85 S8        29.63R
GONZALES*      CLOUDY    68  68  99 S6        29.66R
HAMMOND*       CLEAR     64  57  77 S6        29.68R
HOUMA*         CLEAR     68  67  95 S7        29.69R FOG
PORT FOURCHON* CLOUDY    72  68  88 S10G16    29.75R FOG

$$

MSZ070-080>082-240200-
SOUTHERN MISSISSIPPI

CITY           SKY/WX    TMP DP  RH WIND       PRES   REMARKS
MCCOMB         CLEAR     65  59  81 S10       29.63R
GULFPORT       CLEAR     65  62  90 S8        29.69S
BILOXI         CLEAR     64  64  99 S17G24    29.70R
PASCAGOULA     CLOUDY    66  64  93 S9        29.72R
STENNIS ARPT*  CLEAR     64  61  88 S9        29.69R

$$

COASTAL OBSERVATIONS
LAKE AND NEARSHORE STATIONS

STATION/POSITION TIME  TEMP    WIND        PRES    WAVE
                       AIR SEA DIR/SP/G            HT/PER
                 (UTC) (F)     (DEG/KT/KT) (MB)    (FT/S)
PASCAGOULA       0100   65     200/ 12/ 14 1006.0
WAVELAND YACHT   0100   64     200/ 10/ 15 1004.7
GRAND ISLE       0100   70 64  200/  8/ 12 1006.6
SOUTHWEST PASS   0100   69 73              1007.3
NEW CANAL        0100   68 56  200/  8/ 10 1005.5
SHELL BEACH      0100   66 55  170/  6/  8 1005.7

OFFSHORE STATIONS

STATION/POSITION TIME  TEMP    WIND        PRES    WAVE
                       AIR SEA DIR/SP/G            HT/PER
                 (UTC) (F)     (DEG/KT/KT) (MB)    (FT/S)
64 S DAUPHIN ISL 0045   72 72  200/ 17/ 21 1007.9    7/ 7

$$




USA.gov is the U.S. government's official web portal to all federal, state and local government web resources and services.